Regional Weather Roundup
Issued by NWS Lake Charles, LA

Home | Current Version | Previous Version | Text Only | Print | Product List | Glossary On
Versions: 1 2 3 4 5 6 7 8 9 10 11 12 13 14 15 16 17 18 19 20 21 22 23 24 25 26 27 28 29 30 31 32 33 34 35 36 37 38 39 40 41 42 43 44 45 46 47 48 49 50
000
ASUS44 KLCH 021910
RWRLCH
RWRLCH
REGIONAL WEATHER ROUNDUP
NATIONAL WEATHER SERVICE LAKE CHARLES LA
100 PM CST MON MAR 02 2015

Note: "fair" indicates few or no clouds below 12,000 feet with no
significant weather and/or obstructions to visibility.


ACROSS SOUTHEAST TEXAS

CITY           SKY/WX    TMP DP  RH WIND       PRES   REMARKS
BEAUMONT       CLOUDY    63  56  78 N7        30.24F
BEAUMONT CITY  CLOUDY    57  55  91 N5        30.25F
ORANGE         CLOUDY    60  57  89 MISG      30.26F
JASPER         CLOUDY    53  50  92 N6        30.29F FOG
$$

ACROSS CENTRAL LOUISIANA

CITY           SKY/WX    TMP DP  RH WIND       PRES   REMARKS
LEESVILLE      CLOUDY    51  49  93 NE6       30.26F
FULLERTON      CLOUDY    54  48  80 CALM      30.25F
ALEXANDRIA INT CLOUDY    49  46  90 N6        30.28F
ESLER FIELD    CLOUDY    48  46  93 VRB3      30.28F
DERIDDER       CLOUDY    55  52  90 CALM      30.28F
OAKDALE        CLOUDY    53  51  91 N5        30.27F
OPELOUSAS      DRIZZLE   50  49  96 N6        30.26F
$$

ACROSS SOUTHWEST AND SOUTH CENTRAL LOUISIANA

CITY           SKY/WX    TMP DP  RH WIND       PRES   REMARKS
SULPHUR        CLOUDY    61  58  91 NE6       30.25F
LAKE CHARLES   CLOUDY    58  56  93 NE9       30.25F
CHENNAULT INT  CLOUDY    55  55 100 VRB5      30.26F FOG
CAMERON PHI    CLOUDY    61  61 100 NE12      30.26F
DEQUINCY       NOT AVBL
JENNINGS       RAIN      54  53  97 NE9       30.26F
LAFAYETTE      CLOUDY    59  58  96 N7        30.25F FOG
NEW IBERIA     CLOUDY    69  67  93 VRB3      30.24F FOG
ABBEVILLE      CLOUDY    65  65  99 NW10      30.24F FOG
PATTERSON      CLOUDY    77  70  78 SW8       30.23F
SALT POINT       N/A     74  69  85 S5        30.21F
$$

SELECTED SITES ACROSS THE REGION

CITY           SKY/WX    TMP DP  RH WIND       PRES   REMARKS
HOUSTON BUSH   CLOUDY    56  52  86 NE5       30.25F FOG
HOUSTON HOBBY  CLOUDY    58  53  84 N5        30.24F
GALVESTON      CLOUDY    54  53  97 N12       30.25F FOG
COLLEGE STAT   CLOUDY    44  42  93 N8        30.28F FOG
CONROE         CLOUDY    52  49  89 NE5       30.27F
HUNTSVILLE     CLOUDY    48  48 100 CALM      30.27F FOG
LUFKIN         CLOUDY    50  46  86 N5        30.28F FOG
SHREVEPORT     DRIZZLE   44  42  93 E9        30.32F FOG
MONROE         CLOUDY    41  39  93 NE13      30.35F
NATCHEZ MS     CLOUDY    46  45  93 N9        30.28F
BATON ROUGE    FOG       66  64  93 CALM      30.23F VSB 1
N.O. INTL ARPT PTSUNNY   75  69  81 S9        30.23F
SLIDELL        CLOUDY    71  68  90 MISG      30.23F
$$

MARINE REPORTS

STATION/POSITION TIME  TEMP    WIND        PRES    VSBY  WAVE
                       AIR SEA DIR/SP/G                  HT/PER
                 (UTC) (F)     (DEG/KT/KT) (MB)    (MI)  (FT/S)
BUOY 30 S HIGH I 1900   55 58   20/ 10/ 12 1023.6F         2/ 6
SEA RIM ST PARK  1900   61      30/  6/  9 1024.3F
PORT ARTHUR      1900      55   50/  2/  6 1024.2F
SABINE PASS N    1900   57 53   20/  7/  9 1024.2F
TEXAS POINT      NOT AVBL
CALCASIEU PASS   1900   59 54   50/  9/ 12   N/A
LK CHARLES BEACH 1900   56 58              1024.6F
MARSH ISLAND     NOT AVBL
FRESH WATER LOCK 1900   63 60  130/  6/ 10 1023.7F
AMERADA PASS     1900   71 49  180/  3/  6 1023.6F
$$



USA.gov is the U.S. government's official web portal to all federal, state and local government web resources and services.